Flag for U.S.A. Weather past 2 weeks in Wichita Falls, Texas, U.S.A.

Now
89 °F

Sunny.


Feels Like: 95 °F
Forecast: 76 / 94 °F
Wind: 15 mph from Southwest

Location: Wichita Falls - Sheppard Air Force Base

Current Time: Jul 2, 2015 at 2:04:48 PM

Latest Report: Jul 2, 2015 at 12:52 PM


Visibility: 10 mi

Pressure: 29.87 "Hg

Humidity: 55%

Dew point: 71 °F

Location of Wichita FallsLocation

Historic Weather in Wichita Falls — Graph

°F

Wichita Falls temperature yesterday

Maximum temperature yesterday: 94 °F (at 3:52 PM)
Minimum temperature yesterday: 74 °F (at 5:52 AM)
Average temperature yesterday: 84 °F

Past Weeks' High & Low Weather Summary

 TemperatureHumidityPressure
High94 °F (Jun 19, 5:52 PM)94% (Jun 17, 12:52 PM)30.14 "Hg (Jun 17, 12:52 PM)
Low65 °F (Jun 28, 6:52 AM)31% (Jun 27, 4:52 PM)29.78 "Hg (Jun 17, 6:52 PM)
Average81 °F66%29.95 "Hg
* Reported Jun 17 12:52 PM — Jul 2 12:52 PM, Wichita Falls, Weather by CustomWeather, © 2015

Note: Actual official high and low records may vary slightly from our data, if they occured in-between our weather recording intervals... More about our weather records

Advertising

Wichita Falls weather history for previous 24 hours

 ConditionsComfort  
Time TempWeatherWind HumidityBarometerVisibility
12:52 PM
Thu, Jul 2
89 °FSunny.15 mph55%29.87 "Hg10 mi
11:52 AM86 °FSunny.17 mph59%29.88 "Hg10 mi
10:52 AM85 °FSunny.16 mph61%29.89 "Hg10 mi
9:52 AM82 °FSunny.15 mph65%29.90 "Hg10 mi
8:52 AM77 °FSunny.14 mph71%29.90 "Hg10 mi
7:52 AM77 °FSunny.N/A71%29.90 "Hg10 mi
6:52 AM76 °FClear.14 mph74%29.88 "Hg10 mi
5:52 AM76 °FClear.14 mph74%29.87 "Hg10 mi
4:52 AM77 °FClear.14 mph71%29.86 "Hg10 mi
3:52 AM78 °FClear.17 mph69%29.85 "Hg10 mi
2:52 AM79 °FClear.20 mph69%29.83 "Hg10 mi
1:52 AM80 °FClear.18 mph67%29.84 "Hg10 mi
12:52 AM81 °FClear.16 mph62%29.85 "Hg10 mi
11:52 PM
Wed, Jul 1
81 °FClear.10 mph60%29.86 "Hg10 mi
10:52 PM84 °FClear.16 mph55%29.86 "Hg10 mi
9:52 PM85 °FClear.16 mph53%29.84 "Hg10 mi
8:52 PM87 °FPassing clouds.14 mph50%29.83 "Hg10 mi
7:52 PM90 °FPassing clouds.18 mph45%29.83 "Hg10 mi
6:52 PM92 °FPassing clouds.17 mph44%29.83 "Hg10 mi
5:52 PM92 °FPassing clouds.18 mph46%29.84 "Hg10 mi
4:52 PM93 °FScattered clouds.22 mph44%29.84 "Hg10 mi
3:52 PM94 °FScattered clouds.21 mph44%29.85 "Hg10 mi
2:52 PM93 °FScattered clouds.16 mph44%29.88 "Hg10 mi
Weather by CustomWeather, © 2015

See weather overviewHow to use our weather pages